Flag for U.S.A. Weather past 2 weeks in Kykotsmovi Village, Hopi, Arizona, U.S.A.

Now
43 °F

Mostly cloudy.


Feels Like: 37 °F
Forecast: 35 / 48 °F
Wind: 10 mph from Northwest

Location: Winslow Municipal Airport

Current Time: Jan 31, 2015 at 10:47:18 AM

Latest Report: Jan 31, 2015 at 9:56 AM


Visibility: 10 mi

Pressure: 29.88 "Hg

Humidity: 89%

Dew point: 40 °F

Location of Kykotsmovi Village, HopiLocation

Historic Weather in Kykotsmovi Village, Hopi — Graph

°F

Kykotsmovi Village, Hopi temperature yesterday

Maximum temperature yesterday: 48 °F (at 12:56 PM)
Minimum temperature yesterday: 42 °F (at 4:56 AM)
Average temperature yesterday: 45 °F

Past Weeks' High & Low Weather Summary

 TemperatureHumidityPressure
High65 °F (Jan 27, 2:56 PM)100% (Jan 16, 9:56 AM)30.50 "Hg (Jan 16, 9:56 AM)
Low18 °F (Jan 23, 5:56 AM)21% (Jan 23, 2:56 PM)29.80 "Hg (Jan 31, 1:56 AM)
Average39 °F72%30.24 "Hg
* Reported Jan 16 8:59 AM — Jan 31 8:56 AM, Kykotsmovi Village, Hopi, Weather by CustomWeather, © 2014

Note: Actual official high and low records may vary slightly from our data, if they occured in-between our weather recording intervals... More about our weather records

Advertising

Kykotsmovi Village, Hopi weather history for previous 24 hours

 ConditionsComfort  
Time TempWeatherWind HumidityBarometerVisibility
8:56 AM
Jan 31
41 °FLow clouds.9 mph96%29.87 "Hg10 mi
8:04 AM40 °FFog.6 mph97%29.90 "Hg5 mi
7:56 AM40 °FFog.6 mph97%29.86 "Hg2 mi
6:56 AM40 °FFog.9 mph97%29.84 "Hg2 mi
5:56 AM40 °FFog.7 mph100%29.82 "Hg2 mi
4:56 AM41 °FFog.7 mph96%29.81 "Hg4 mi
3:56 AM42 °FMostly cloudy.6 mph92%29.80 "Hg10 mi
2:56 AM43 °FOvercast.6 mph93%29.81 "Hg10 mi
1:56 AM43 °FOvercast.5 mph93%29.80 "Hg10 mi
12:56 AM44 °FOvercast.6 mph89%29.82 "Hg10 mi
11:56 PM
Jan 30
44 °FLight rain. Mostly cloudy.5 mph89%29.83 "Hg10 mi
10:56 PM44 °FLight rain. Mostly cloudy.6 mph93%29.85 "Hg10 mi
9:56 PM45 °FOvercast.7 mph90%29.83 "Hg10 mi
8:56 PM45 °FLight rain. Mostly cloudy.7 mph93%29.85 "Hg10 mi
7:56 PM46 °FLight rain. Mostly cloudy.7 mph93%29.85 "Hg10 mi
6:56 PM46 °FOvercast.7 mph93%29.85 "Hg10 mi
5:56 PM47 °FLight rain. Overcast.9 mph90%29.84 "Hg10 mi
4:56 PM47 °FLight rain. Mostly cloudy.10 mph93%29.83 "Hg10 mi
3:56 PM48 °FLight rain. Overcast.12 mph89%29.83 "Hg10 mi
2:56 PM47 °FLight rain. Mostly cloudy.14 mph93%29.84 "Hg10 mi
1:56 PM48 °FLight rain. Overcast.13 mph89%29.85 "Hg10 mi
12:56 PM48 °FLight rain. Overcast.15 mph86%29.87 "Hg10 mi
11:56 AM46 °FOvercast.15 mph89%29.93 "Hg10 mi
10:56 AM45 °FLight rain. Overcast.13 mph90%29.96 "Hg10 mi
Weather by CustomWeather, © 2014

See weather overviewHow to use our weather pages